Погода в Финиксе

США     33°34′11″N   112°03′52″W
темп.,
°C
ветер,
м/с
пор.,
м/с
влажн.,
%
обл.,
%
осадки,
мм/ч
давл.,
гПа
погр.,
м
14 августа, вс
вс1423:00+35вюв4533100 0.1 1011521
02:00+29в4451100 0.5 1012576
05:00+29в4453100 1.1 1013550
08:00+30вюв3351100 1.1 1013557
11:00+31всв1147100 1.6 1013673
14:00+34ссв1238100 0.0 10111222
17:00+36св11335 0.0 10071871
20:00+36зсз23315 0.0 10081848
15 августа, пн
пн1523:00+35юв333593 0.0 1009550
02:00+31св444690 1.4 1009391
05:00+31св334457 1.5 1008307
08:00+32в22405 0.0 1009437
11:00+35с11335 0.0 10091154
14:00+38з33275 0.0 10072352
17:00+39зсз332322 0.0 10042972
20:00+38з442443 0.1 10051931
16 августа, вт
вт1623:00+31юв10125176 2.0 1009692
02:00+30св235332 2.8 1009495
05:00+30вюв2251100 2.9 1007451
08:00+31ю114958 0.0 1009678
11:00+34ююв213950 0.0 10091039
14:00+36ююв213381 0.0 10071195
17:00+38ююз022710 0.0 10051549
20:00+37всв3329100 0.0 1005866
17 августа, ср
ср1723:00+35ссв123080 0.3 1007191
02:00+33в233757 0.5 1007372
05:00+32вюв234195 0.5 1008352
08:00+33в23377 0.0 1009573
11:00+36всв113038 0.0 10091260
14:00+39з01245 0.0 10071985
17:00+40з22210 0.0 10042582
20:00+33всв10124011 0.1 1008839
18 августа, чт
чт1823:00+32всв4540100 1.4 1010575
02:00+31зсз434493 0.8 1010780
05:00+31с2344100 0.9 1009669
08:00+31вюв224256 0.8 1011611
11:00+34вюв223599 1.1 10111355
14:00+37ююв23309 0.0 10082100
17:00+37ю552990 0.2 10061294
20:00+34ююз2236100 1.9 1008538